Regional Weather Roundup
Issued by NWS

Home | Current Version | Previous Version | Text Only | Print | Product List | Glossary On
Versions: 1 2 3 4 5 6 7 8 9 10 11 12 13 14 15 16 17 18 19 20 21 22 23 24 25 26 27
000
ASUS42 KTBW 251017
RWRFL
FLORIDA REGIONAL WEATHER ROUNDUP
NATIONAL WEATHER SERVICE TAMPA BAY RUSKIN FL
600 AM EDT MON JUL 25 2016

NOTE: "FAIR" INDICATES FEW OR NO CLOUDS BELOW 12,000 FEET WITH NO
SIGNIFICANT WEATHER AND/OR OBSTRUCTIONS TO VISIBILITY.

FLZ001>010-012>015-112-114-115-251100-
PANHANDLE FLORIDA

CITY           SKY/WX    TMP DP  RH WIND       PRES   REMARKS
PENSACOLA      CLEAR     83  74  74 SE9       29.96R
PENSACOLA NAS  MOCLDY    84  73  69 SE8       29.96R
MILTON NAS       N/A    N/A N/A N/A MISG      29.99R
CRESTVIEW      CLEAR     73  72  96 NE5       30.01R
DUKE FIELD     FAIR      74  73  95 E5        29.98R
VALPARAISO     MOCLDY    78  75  90 NE6       29.97R
MARY ESTHER    PTCLDY    84  73  69 NE5       29.96
TRI COUNTY     FAIR      79  73  82 CALM      30.02R
PANAMA CITY    FAIR      76  74  93 NE5       29.98R
TYNDALL AFB    CLEAR     78  75  91 E6        29.98R
APALACHICOLA   PTCLDY    82  76  81 SE7       29.98R

STATION/POSITION SKY/WX   TEMP    WIND        PRES    WAVE   SWELL
                          AIR SEA DIR/SP/G            HT/PER HT/PER
                          (F)     (DEG/KT/KT) (MB)    (FT/S) (FT/S)
30.1N   87.6W              85 89  160/ 12/ 16 1014.1R   2/ 4
29.2N   88.2W              84 87  190/  4/  6 1013.3R
28.8N   86.0W              83 87  150/ 10/ 14 1014.3F   2/ 5   2/ 5
PANAMA CITY BEAC           80 87   90/  8/ 12 1015.1S
TOWER C                    83     150/ 11/ 15 1015.9R
28.5N   84.5W              84 87  160/ 12/ 16 1015.1R   1/ 5

$$
FLZ011-016>038-118-127-128-134-139-239-251100-
NORTH FLORIDA

CITY           SKY/WX    TMP DP  RH WIND       PRES   REMARKS
MARIANNA       CLEAR     75  75 100 NE3       30.00R
TALLAHASSEE    CLEAR     77  74  90 CALM      30.01
PERRY          CLEAR     74  72  93 CALM      30.03R
LIVE OAK         N/A     73  73 100 CALM      30.05R
CROSS CITY       N/A     73  70  90 CALM      30.02S
LAKE CITY      FAIR      68  68 100 SE3       30.05R
GAINESVILLE    CLEAR     71  68  90 CALM      30.04S
WILLISTON      FAIR      72  70  94 CALM      30.04S
PALATKA        FAIR      68  68 100 CALM      30.05R FOG
MAYPORT NAS    PTCLDY    75  71  87 SW3       30.04R
JACKSONVILLE   CLEAR     71  71 100 CALM      30.03S
JAX NAS        CLEAR     79  70  74 CALM      30.04S
JAX CECIL      CLEAR     68  66  94 CALM      30.04S
FERNANDINA BEA FAIR      79  73  83 SW3       30.03S
ST AUGUSTINE   CLEAR     75  70  84 CALM      30.05R
PALM COAST     CLEAR     72  72 100 CALM      30.05R

STATION/POSITION SKY/WX   TEMP    WIND        PRES    WAVE   SWELL
                          AIR SEA DIR/SP/G            HT/PER HT/PER
                          (F)     (DEG/KT/KT) (MB)    (FT/S) (FT/S)
SHELL POINT                83     150/  4/  6 1014.5
KEATON BEACH               74      90/  9/ 11 1016.2R
CEDAR KEY                  80     130/  8/  9 1017.0R
FERNANDINA                 79 89  140/  2/  4 1016.8F
30.7N   81.3W                 86                N/A     2/ 9
MAYPORT                    77 87  190/  2/  4 1017.3F
31.4N   80.9W              84 86  180/ 12/ 14 1017.0R   3/ 5   2/ 9
ST AUGUSTINE               77 85  200/  5/  5 1018.2R

$$
FLZ040-043>046-052-053-057-058-063-144-251100-
INTERIOR CENTRAL FLORIDA

CITY           SKY/WX    TMP DP  RH WIND       PRES   REMARKS
OCALA          CLEAR     70  66  88 CALM      30.04S
THE VILLAGES     N/A     73  72  94 CALM      29.94S
LEESBURG       CLEAR     75  72  90 SE6       30.05S
SANFORD        CLEAR     74  71  91 E3        30.05S
ORLANDO EXEC   CLEAR     75  72  90 CALM      30.05S
ORLANDO INTL   PTCLDY    75  71  87 CALM      30.05S
KISSIMMEE      CLEAR     75  73  93 CALM      30.06S
WINTER HAVEN   CLEAR     75  72  90 CALM      30.06S
LAKELAND       CLEAR     73  72  94 CALM      30.05S
BARTOW         FAIR      70 N/A N/A CALM      30.06R
OKEECHOBEE     CLEAR     72  72 100 CALM      30.06R

$$
FLZ041-047-054-059-064-141-147-251100-
EAST CENTRAL FLORIDA

CITY           SKY/WX    TMP DP  RH WIND       PRES   REMARKS
DAYTONA BEACH  PTCLDY    73  71  93 S3        30.05S
JFK SPACE CTR  CLEAR     73  70  91 CALM      30.04S
CAPE CANAVERAL CLEAR     75  70  84 CALM      30.04S
PATRICK AFB    PTCLDY    80  71  75 SW2       30.05R
MELBOURNE      CLEAR     75  70  84 CALM      30.05S
VERO BEACH     CLEAR     74  72  93 W3        30.05R
FT PIERCE      CLEAR     71  70  96 CALM      30.06R

STATION/POSITION SKY/WX   TEMP    WIND        PRES    WAVE   SWELL
                          AIR SEA DIR/SP/G            HT/PER HT/PER
                          (F)     (DEG/KT/KT) (MB)    (FT/S) (FT/S)
28.5N   80.2W              82 85  170/  6/  8 1017.8R
28.9N   78.5W              83 86  130/  6/  8 1017.8S
TRIDENT PIER               80 87  230/  4/  6 1017.7R
28.4N   80.5W                 86                N/A     1/ 8
27.5N   80.2W                 85                N/A     1/ 9

$$
FLZ050-056-061-142-242-148-248-149-249-151-251-155-255-
160-260-251100-
WEST CENTRAL FLORIDA

CITY           SKY/WX    TMP DP  RH WIND       PRES   REMARKS
CRYSTAL RIVER  FAIR      70  70 100 CALM      30.04R
INVERNESS      FAIR      70  70 100 CALM      30.04S
BROOKSVILLE    CLEAR     72  71  97 SE6       30.04S
ZEPHYRHILLS    FAIR      49  49 100 CALM      30.05S
CLEARWATER AIR FAIR      77  73  88 SE3       30.02S
ST PETE CLEARW CLEAR     77  60  55 SE5       30.02S
TAMPA INTL     PTCLDY    76  74  93 E3        30.03S
TAMPA EXEC     CLEAR     73  72  94 CALM      30.04S
PLANT CITY     CLEAR     73  73 100 CALM      30.06S
MACDILL AFB    CLEAR     77  77 100 SE7       30.02S
PETER O KNIGHT CLEAR     77  75  94 E6        30.03S
ST PETERSBURG  CLEAR     79  74  84 SE12      30.00S
SARASOTA       CLEAR     77  72  84 SE6       30.01S
VENICE         NOT AVBL

STATION/POSITION SKY/WX   TEMP    WIND        PRES    WAVE   SWELL
                          AIR SEA DIR/SP/G            HT/PER HT/PER
                          (F)     (DEG/KT/KT) (MB)    (FT/S) (FT/S)
27.3N   84.2W                 86                N/A     2/ 5
CLEARWATER BEACH           79 87  120/  7/  9 1016.5S
MIDDLE TAMPA BAY                  150/ 10/ 11 1016.8S
VENICE                     78 87  110/  5/  6 1016.4R

$$
FLZ066-069-070-075>078-162-262-165-265-251100-
SOUTHWEST FLORIDA AND KEYS

CITY           SKY/WX    TMP DP  RH WIND       PRES   REMARKS
PUNTA GORDA    CLEAR     75  74  96 E3        30.04S
FT MYERS       CLEAR     75  73  93 CALM      30.03R
SOUTHWEST INTL CLEAR     75  71  87 E6        30.03R
NAPLES         CLEAR     74  73  97 E5        30.02S
MARCO ISLAND   CLEAR     73  70  88 E5        30.03S
MARATHON       MOCLDY    81  77  88 E3        30.02S
KEY WEST NAS   CLOUDY    82  77  84 E5        30.02S
KEY WEST INTL  CLOUDY    83  78  85 E7        30.02S

STATION/POSITION SKY/WX   TEMP    WIND        PRES    WAVE   SWELL
                          AIR SEA DIR/SP/G            HT/PER HT/PER
                          (F)     (DEG/KT/KT) (MB)    (FT/S) (FT/S)
NAPLES                        86              1016.6F
26.0N   85.6W              83 86  180/ 10/ 12 1015.4R   2/ 5   2/ 5
DRY TORTUGAS               83     110/  6/  7 1016.4R
SAND KEY                   82     110/  8/  9 1017.1R
LONG KEY                   83 85  100/  8/  9 1017.0R

$$
FLZ067-068-071>074-168-172>174-251100-
SOUTHEAST FLORIDA

CITY           SKY/WX    TMP DP  RH WIND       PRES   REMARKS
W PALM BEACH   PTCLDY    78  72  81 N3        30.05R
FT LAUDER-EXEC CLEAR     80  74  81 CALM      30.04R
FT LAUDERDALE  PTCLDY    81  74  79 SE5       30.03R
POMPANO BEACH  CLEAR     79  74  84 CALM      30.04R
PEMBROKE PINES CLEAR     77  74  90 CALM      30.05R
OPA LOCKA      CLEAR     79  75  87 CALM      30.04R
MIAMI          PTCLDY    78  74  87 CALM      30.04R
WEST KENDALL   CLEAR     77  74  90 CALM      30.03R
HOMESTEAD      PTCLDY    78  75  89 NE2       30.03R

STATION/POSITION SKY/WX   TEMP    WIND        PRES    WAVE   SWELL
                          AIR SEA DIR/SP/G            HT/PER HT/PER
                          (F)     (DEG/KT/KT) (MB)    (FT/S) (FT/S)
PORT EVERGLADES            82     110/  3/  5 1017.1R
VIRGINIA KEY               83 87  100/  6/  8 1017.0F
LAKE WORTH                        130/  5/  6   N/A
FOWEY ROCKS                83 84  100/  8/  8 1017.7R
SETTLEMENT POINT           81     130/  3/  3 1018.4R

$$





USA.gov is the U.S. government's official web portal to all federal, state and local government web resources and services.